OBJECT A, 44310

Orbit data source: Space-Track

You're viewing an Uncataloged Satellite

Recently launched and/or uncataloged satellites may have evolving metadata. Metadata may include but not limited to: Owner, Maufacturer, Bus, Motor, and Mission.

OBJECT A, 44310 is a satellite owned by CETG (CN) in LEO that was launched on Wed, 05 Jun 2019 UTC via a CHANG ZHENG 11 launch vehicle from the Yellow Sea Launch Area, China (YSLA). Unknown objects in Earth's orbit typically refer to objects detected orbiting the Earth but have not yet been identified or cataloged. These objects could be anything from previously untracked satellites, spent rocket stages, debris from satellite collisions, or even natural meteoroids temporarily captured by Earth's gravity.

Loading next visibility...
Identifier
44310, 2019-032A
Orbit
LEO
Country
Flag of CNCN / PRC
Related business
None
Manufacturer
DKJ?
Mission
Operational Commercial Technology
Bus & Motor
TIANDI, Unknown motor
Mass
65 kg wet, 65 kg dry
Launch date (UTC)
2019-06-05 (6 years ago)
Launch vehicle
CHANG ZHENG 11
Launch site
Yellow Sea Launch Area, China (YSLA)
Object type
Unknown
Shape & HBR
Box, Unknown HBR
Radar Cross Section
1.500 m², Medium (>0.1 m² and < 1m²)

Expand to show TLE details & history
Last TLE update: 4 hours ago

TLE from 4 hours ago
0 OBJECT A
1 44310U 19032A   25242.97178591  .00014204  00000-0  66384-3 0  9990
2 44310  44.9744 194.1096 0010690  43.9680 316.2049 15.19713888342906
Epoch: 2025-08-30T23:19Z
TLE epoch observation values (Epoch: 2025-08-30T23:19:22.302Z)
Latitude
0.00002°
Longitude
-135.13173°
Altitude
501.392 km
Speed
7.618 km/s
True Right ascension
12h 56m 26s
True Declination
0° 00' 00"
Sunlit
Object was in daylight at epoch
Visualization orbit readout
Latitude
Unknown
Longitude
Unknown
Altitude
Unknown
Speed
Unknown
Apparent Right ascension
Unknown
Apparent Declination
Unknown
Sunlit
N/A
Visualization observer readout
Local Sidereal Time
18:57:52
Azimuth
Unknown
Elevation
Unknown
Doppler factor
Unknown
Orbital elements
Apogee altitude
515.674 km
Perigee altitude
500.951 km
Semi-major axis
6,886.45 km
Eccentricity
0.00107
Inclination
44.9744°
RAAN
194.1096°
Arg. of periapsis
43.968°
True anomaly
316.12004°
Mean anomaly
316.2049°
Eccentric anomaly
316.16248°
Mean motion
3.79796 °/min
Orbital period
94.79 mins
BSTAR
0.00066384
Loading maneuver chart data...
Computing Atmospheric mass density...
Loading historical data...
Loading historical data...
Loading historical data...
Loading historical data...
Loading historical data...
Loading historical data...
Loading historical data...

Documentation

Showing up to 5 results
|